COSMOS 1275 DEB

Satellite information

Favourite Embed

Satellite Type and Status

DEBRISIN ORBIT

Key statistics

Satellite COSMOS 1275 DEB at a glance.

Uptime

16104

Days in orbit

Revolutions

≈ 14.0

Per day

Orbit

LEO

Low Earth Orbit

Inclination

82.9

Latest

Satellite identification and parameters

Extended collection of information and parameters for COSMOS 1275 DEB.

Object identification

Identified? True

Debris? True

Object name: COSMOS 1275 DEB

International designator: 1981-053KW

Object number (NORAD): 17627

Object ID (CCSDS): 17627

Country: COMMONWEALTH OF INDEPENDENT STATES (CIS)

Current information (Y/N): Y

RCS size: SMALL

Orbital parameters

Period: 102.873 minutes

Inclination: 82.9228 deg

SMA: 7272.674 km

Apoapsis: 927.491 km

Periapsis: 861.587 km

RAAN: 263.0759 deg

Eccentricy: 0.0045309

Argument of periapsis: 354.8835 deg

Mean anomaly: 5.1866 deg

Mean motion: 13.99785845 rev/day

Mean motion (dot): 0.00000793 rev/day2

B* drag term: 0.00052618 1/REarth

Two-line elements (TLE)

Creation date: July 6, 2025, 10:26 p.m.

Reference frame: TEME

Reference center: EARTH

Epoch: July 6, 2025, 3:24 p.m. UTC

TLE line 0: 0 COSMOS 1275 DEB

TLE line 1: 1 17627U 81053KW 25187.64213687 .00000793 00000-0 52618-3 0 9994

TLE line 2: 2 17627 82.9228 263.0759 0045309 354.8835 5.1866 13.99785845 37482

Live tracking on map

Real-time ground track for satellite COSMOS 1275 DEB.

In-orbit conjunctions

A list of the most updated potential collisions computed for object COSMOS 1275 DEB.

Target Orbit TCA Probability of collision Miss distance Type
ELECTRON KICK STAGE R/B SSO 2024-09-10 18:08:10 0.0001738143 385.0 (m) ROCKET BODY

Associated space launch

Navigation satellite providing location information for the Tsiklon-B navigation system

COSMOS 1275 DEB was lifted into orbit during the mission ‘Kosmos-3M | Parus 27’, on board a Kosmos-3M space rocket.

The launch took place on June 4, 1981, 3:41 p.m. from 132/2.

For more information about the launch, click the button.

Launch to space Kosmos-3M | Parus 27
Kosmos-3M | Parus 27

Agency: N/A

Status: Launch Successful

Launch date: June 4, 1981, 3:41 p.m. UTC

Rocket: Kosmos-3M

Launch pad: 132/2

Location: Plesetsk Cosmodrome, Russian Federation

...

Latest news about this satellite

There are no fresh news available about this satellite. Check back as we update our databases every day.


Newsletter sign-up

Weekly statistics, charts and insights to help you stay on top of the space industry.